Location: Shenandoah County Park
(38.9356°N, 78.4524°W)
Time: 05:10:09
(UTC-05:00)

Explorer 7 - Visible Passes

Search period start: 23 February 2024 00:00
Search period end: 04 March 2024 00:00
Orbit: 470 x 632 km, 50.3° (Epoch: 22 February)

Date Brightness Start Highest point End Pass type
(mag) Time Alt. Az. Time Alt. Az. Time Alt. Az.
26 Feb 9.9 06:00:26 10° SE 06:00:58 10° SE 06:01:29 10° ESE visible
27 Feb 9.4 05:53:24 10° SSE 05:55:36 15° SE 05:57:48 10° E visible
28 Feb 8.9 05:47:22 10° S 05:50:14 22° SE 05:53:07 10° E visible
29 Feb 8.2 05:41:38 10° SSW 05:44:54 31° SE 05:48:11 10° ENE visible
01 Mar 7.4 05:36:08 10° SSW 05:39:34 46° SE 05:43:06 10° ENE visible
02 Mar 6.7 05:31:45 19° SW 05:34:15 68° SE 05:37:55 10° ENE visible
03 Mar 6.4 05:27:10 28° WSW 05:28:58 84° NW 05:32:39 10° NE visible
